Location: Forestville
(38.4740°N, 122.8890°W)
Time: 17:38:58
(UTC-07:00)

Amateur Radio Satellites - All Passes

Search period start: 19 April 2014 17:08
Search period end: 20 April 2014 17:08
Location: Forestville, 38.4740°N, 122.8890°W

Satellite Date Start Highest point End Downlink Frequencies (MHz)
Time Altitude Azimuth
OPAL 19 Apr 17:26:01 17:29:33 19° 298° (WNW) 17:33:05 ?
ISS 19 Apr 17:32:18 17:34:17 15° 340° (NNW) 17:36:16 145.800 FM
Hamsat 19 Apr 17:36:29 17:38:58 16° 66° (ENE) 17:41:28 145.90 MHz
AO-7 19 Apr 17:38:48 17:46:38 46° 259° (W) 17:54:32 29.400 - 29.500 MHz
UOSAT-12 19 Apr 17:47:44 17:52:09 56° 117° (ESE) 17:56:42 437.025 FM, 437.400 FM
JAS-1B 19 Apr 17:54:10 17:59:58 21° 265° (W) 18:05:11 435.800 - 435.900 CW/SSB
RS-15 19 Apr 18:41:44 18:50:03 26° 257° (WSW) 18:58:36 29.354 - 29.394 USB, Beacon 29.352 USB
AO-40 19 Apr 18:51:48 19:02:56 14° 206° (SSW) 19:08:29 Beacon 2401.320
SO-67 19 Apr 18:52:21 18:54:36 16° 69° (ENE) 18:56:51 435.3500 MHz FM
Hamsat 19 Apr 19:10:37 19:14:35 41° 262° (W) 19:18:37 145.90 MHz
JAS-2 19 Apr 19:12:05 19:17:52 59° 73° (ENE) 19:23:08 435.800 - 435.900 CW/SSB, 435.910 FM
UOSAT-12 19 Apr 19:29:29 19:32:40 18° 315° (NW) 19:35:55 437.025 FM, 437.400 FM
Saudisat 1A 19 Apr 19:36:20 19:40:00 25° 49° (NE) 19:43:39 436.775 MHz
HO-68 19 Apr 19:58:15 20:03:01 20° 57° (ENE) 20:07:48 435.675 MHz FM
STRAND 1 19 Apr 20:03:12 20:08:19 87° 284° (WNW) 20:13:25 ?
SO-67 19 Apr 20:24:37 20:27:33 25° 264° (W) 20:30:30 435.3500 MHz FM
ISS 19 Apr 20:48:00 20:50:09 16° 21° (NNE) 20:52:17 145.800 FM
JAS-2 19 Apr 20:59:39 21:03:13 16° 266° (W) 21:06:38 435.800 - 435.900 CW/SSB, 435.910 FM
Saudisat 1A 19 Apr 21:15:41 21:19:38 33° 246° (WSW) 21:23:32 436.775 MHz
HO-68 19 Apr 21:42:46 21:49:54 80° 255° (WSW) 21:57:05 435.675 MHz FM
STRAND 1 19 Apr 21:46:10 21:46:42 10° 301° (WNW) 21:47:14 ?
FUNcube-1 19 Apr 22:15:00 22:18:28 26° 70° (ENE) 22:21:55 145.950 - 145.970 MHz USB
Oscar 11 19 Apr 22:22:44 22:27:02 74° 258° (WSW) 22:31:22 145.825 FM, Beacon 2401.500 USB
ISS 19 Apr 22:23:57 22:27:19 83° 39° (NE) 22:30:40 145.800 FM
MaSat-1 19 Apr 22:27:06 22:29:39 26° 297° (WNW) 22:31:57 437.345 MHz
HO-68 19 Apr 23:36:21 23:38:34 12° 272° (W) 23:40:48 435.675 MHz FM
PCSat 19 Apr 23:47:16 23:50:59 19° 105° (ESE) 23:54:43 145.825 MHz
FUNcube-1 19 Apr 23:51:27 23:54:50 23° 265° (W) 23:58:12 145.950 - 145.970 MHz USB
SO-50 19 Apr 23:59:02 00:02:55 26° 49° (NE) 00:06:50 436.795 FM
Sapphire 20 Apr 00:43:45 00:49:03 59° 114° (ESE) 00:54:23 437.095 MHz 1200 baud AX-25 AFSK
KITSAT 1 20 Apr 01:19:03 01:21:41 12° 98° (E) 01:24:18 435.175 FM
PCSat 20 Apr 01:28:40 01:33:56 54° 302° (WNW) 01:39:15 145.825 MHz
SO-50 20 Apr 01:39:16 01:43:34 37° 245° (WSW) 01:47:54 436.795 FM
Uribyol 2 20 Apr 01:54:50 01:55:33 10° 89° (E) 01:56:15 436.500 FM
UOSAT-12 20 Apr 02:18:50 02:23:09 34° 51° (NE) 02:27:25 437.025 FM, 437.400 FM
Sapphire 20 Apr 02:28:51 02:32:52 21° 312° (NW) 02:36:54 437.095 MHz 1200 baud AX-25 AFSK
AO-27 20 Apr 02:32:14 02:36:32 26° 96° (E) 02:40:48 436.795 MHz FM
ITAMSAT 1 20 Apr 02:42:33 02:47:09 32° 97° (E) 02:51:44 435.822 SSB
AO-Echo 20 Apr 02:43:49 02:47:41 25° 95° (E) 02:51:30 ?
Oscar 19 20 Apr 02:45:37 02:50:49 68° 102° (ESE) 02:55:59 437.125 CW, 437.150 USB
Oscar 16 20 Apr 02:53:59 02:59:13 88° 103° (ESE) 03:04:25 437.025 USB, Beacon 2401.1428
OPAL 20 Apr 02:59:35 03:04:35 83° 73° (ENE) 03:09:42 ?
KITSAT 1 20 Apr 03:07:36 03:15:39 73° 115° (ESE) 03:23:45 435.175 FM
TMSAT-1 20 Apr 03:16:55 03:19:48 15° 91° (E) 03:22:41 436.925 FM
Uribyol 2 20 Apr 03:30:24 03:35:36 82° 285° (WNW) 03:40:47 436.500 FM
JAS-1B 20 Apr 03:49:35 03:52:36 14° 92° (E) 03:55:41 435.800 - 435.900 CW/SSB
AO-7 20 Apr 03:54:27 03:55:29 10° 88° (E) 03:56:30 29.400 - 29.500 MHz
UOSAT-12 20 Apr 03:59:13 04:03:10 27° 248° (WSW) 04:07:04 437.025 FM, 437.400 FM
Gurwin Techsat 1B 20 Apr 04:07:04 04:12:22 66° 102° (ESE) 04:17:37 435.225 FM
AO-27 20 Apr 04:11:24 04:16:04 35° 291° (WNW) 04:20:43 436.795 MHz FM
ITAMSAT 1 20 Apr 04:22:09 04:26:32 29° 293° (WNW) 04:30:55 435.822 SSB
AO-Echo 20 Apr 04:22:18 04:26:28 31° 291° (WNW) 04:30:34 ?
Oscar 19 20 Apr 04:26:47 04:29:33 15° 298° (WNW) 04:32:19 437.125 CW, 437.150 USB
Oscar 16 20 Apr 04:36:14 04:37:48 11° 300° (WNW) 04:39:21 437.025 USB, Beacon 2401.1428
Uosat F 20 Apr 04:40:58 04:45:29 33° 98° (E) 04:49:58 435.120 FM
TMSAT-1 20 Apr 04:54:54 05:00:08 63° 287° (WNW) 05:05:20 436.925 FM
KITSAT 1 20 Apr 05:05:03 05:11:47 28° 316° (NW) 05:18:34 435.175 FM
JAS-1B 20 Apr 05:38:10 05:43:45 63° 287° (WNW) 05:49:37 435.800 - 435.900 CW/SSB
AO-7 20 Apr 05:41:18 05:49:36 68° 105° (ESE) 05:57:52 29.400 - 29.500 MHz
STRAND 1 20 Apr 05:41:43 05:44:15 14° 62° (ENE) 05:46:46 ?
Gurwin Techsat 1B 20 Apr 05:48:42 05:51:45 16° 298° (WNW) 05:54:46 435.225 FM
AO-40 20 Apr 06:00:28 11:44:41 38° 170° (S) 13:58:30 Beacon 2401.320
Uosat F 20 Apr 06:20:00 06:24:06 26° 293° (WNW) 06:28:12 435.120 FM
RS-15 20 Apr 06:48:49 06:59:53 60° 113° (ESE) 07:10:34 29.354 - 29.394 USB, Beacon 29.352 USB
MaSat-1 20 Apr 06:51:04 06:53:36 24° 62° (ENE) 06:56:30 437.345 MHz
Hamsat 20 Apr 06:57:48 07:01:51 37° 98° (E) 07:05:53 145.90 MHz
STRAND 1 20 Apr 07:17:43 07:22:49 71° 258° (WSW) 07:27:56 ?
AO-7 20 Apr 07:35:07 07:41:42 27° 303° (WNW) 07:48:17 29.400 - 29.500 MHz
SO-67 20 Apr 07:50:27 07:53:18 23° 96° (E) 07:56:08 435.3500 MHz FM
JAS-2 20 Apr 08:06:14 08:11:37 58° 101° (ESE) 08:17:35 435.800 - 435.900 CW/SSB, 435.910 FM
PANSAT 20 Apr 08:24:14 08:25:37 12° 164° (SSE) 08:27:00 not established
MaSat-1 20 Apr 08:29:56 08:31:54 15° 251° (WSW) 08:34:04 437.345 MHz
Hamsat 20 Apr 08:34:33 08:37:33 19° 293° (WNW) 08:40:34 145.90 MHz
PCSat 20 Apr 08:36:16 08:39:09 14° 44° (NE) 08:42:01 145.825 MHz
RS-15 20 Apr 09:02:13 09:12:38 42° 315° (NW) 09:22:52 29.354 - 29.394 USB, Beacon 29.352 USB
HO-68 20 Apr 09:13:20 09:18:33 21° 93° (E) 09:23:43 435.675 MHz FM
SO-67 20 Apr 09:23:53 09:26:17 18° 290° (WNW) 09:28:41 435.3500 MHz FM
Sapphire 20 Apr 09:33:23 09:38:20 35° 54° (NE) 09:43:16 437.095 MHz 1200 baud AX-25 AFSK
JAS-2 20 Apr 09:52:48 09:56:22 18° 295° (WNW) 10:00:09 435.800 - 435.900 CW/SSB, 435.910 FM
PANSAT 20 Apr 10:02:28 10:05:11 18° 177° (S) 10:07:53 not established
Oscar 11 20 Apr 10:12:35 10:16:00 22° 95° (E) 10:19:24 145.825 FM, Beacon 2401.500 USB
PCSat 20 Apr 10:17:54 10:23:22 88° 63° (ENE) 10:28:47 145.825 MHz
HO-68 20 Apr 10:59:37 11:06:44 67° 289° (WNW) 11:13:50 435.675 MHz FM
KITSAT 1 20 Apr 11:02:56 11:09:50 29° 45° (NE) 11:16:40 435.175 FM
Sapphire 20 Apr 11:16:57 11:21:39 31° 251° (WSW) 11:26:19 437.095 MHz 1200 baud AX-25 AFSK
Saudisat 1A 20 Apr 11:20:12 11:24:40 89° 120° (ESE) 11:29:10 436.775 MHz
RS-15 20 Apr 11:22:35 11:29:12 17° 347° (NNW) 11:35:48 29.354 - 29.394 USB, Beacon 29.352 USB
FUNcube-1 20 Apr 11:40:54 11:45:10 70° 102° (ESE) 11:49:31 145.950 - 145.970 MHz USB
PANSAT 20 Apr 11:42:27 11:44:47 15° 190° (S) 11:47:06 not established
Oscar 11 20 Apr 11:48:23 11:52:11 30° 290° (WNW) 11:55:57 145.825 FM, Beacon 2401.500 USB
PCSat 20 Apr 12:04:49 12:05:57 11° 258° (WSW) 12:07:05 145.825 MHz
Oscar 16 20 Apr 12:33:41 12:36:00 13° 61° (ENE) 12:38:19 437.025 USB, Beacon 2401.1428
HO-68 20 Apr 12:50:33 12:53:06 12° 308° (NW) 12:55:40 435.675 MHz FM
KITSAT 1 20 Apr 12:57:50 13:05:52 69° 246° (WSW) 13:13:49 435.175 FM
Saudisat 1A 20 Apr 13:03:00 13:04:55 12° 319° (NW) 13:06:50 436.775 MHz
Uribyol 2 20 Apr 13:10:12 13:13:09 16° 62° (ENE) 13:16:07 436.500 FM
FUNcube-1 20 Apr 13:20:45 13:21:02 10° 296° (WNW) 13:21:19 145.950 - 145.970 MHz USB
RS-15 20 Apr 13:39:42 13:47:34 22° 25° (NNE) 13:55:29 29.354 - 29.394 USB, Beacon 29.352 USB
AO-27 20 Apr 13:48:58 13:53:37 35° 69° (ENE) 13:58:17 436.795 MHz FM
Gurwin Techsat 1B 20 Apr 13:51:29 13:52:53 11° 59° (ENE) 13:54:16 435.225 FM
AO-Echo 20 Apr 13:54:57 13:59:29 31° 69° (ENE) 14:03:56 ?
ITAMSAT 1 20 Apr 13:59:08 14:03:59 42° 70° (ENE) 14:08:51 435.822 SSB
Oscar 19 20 Apr 14:01:02 14:06:10 84° 76° (ENE) 14:11:21 437.125 CW, 437.150 USB
Oscar 16 20 Apr 14:09:33 14:14:40 75° 257° (WSW) 14:19:51 437.025 USB, Beacon 2401.1428
JAS-1B 20 Apr 14:33:45 14:38:09 17° 61° (ENE) 14:42:11 435.800 - 435.900 CW/SSB
TMSAT-1 20 Apr 14:36:04 14:39:58 21° 65° (ENE) 14:43:52 436.925 FM
Uribyol 2 20 Apr 14:46:58 14:52:05 63° 258° (WSW) 14:57:13 436.500 FM
AO-7 20 Apr 14:50:19 14:55:09 17° 51° (NE) 14:59:59 29.400 - 29.500 MHz
KITSAT 1 20 Apr 14:58:31 14:59:44 10° 262° (W) 15:00:58 435.175 FM
ISS 20 Apr 15:05:21 15:08:38 61° 138° (SE) 15:11:57 145.800 FM
OPAL 20 Apr 15:11:33 15:15:48 25° 97° (E) 15:20:01 ?
Gurwin Techsat 1B 20 Apr 15:26:42 15:32:01 88° 76° (ENE) 15:37:22 435.225 FM
AO-27 20 Apr 15:28:50 15:33:09 26° 264° (W) 15:37:29 436.795 MHz FM
AO-Echo 20 Apr 15:33:36 15:38:10 30° 264° (W) 15:42:41 ?
ITAMSAT 1 20 Apr 15:39:44 15:43:37 21° 266° (W) 15:47:32 435.822 SSB
RS-15 20 Apr 15:51:53 16:02:45 62° 54° (NE) 16:13:51 29.354 - 29.394 USB, Beacon 29.352 USB
SO-50 20 Apr 15:52:34 15:57:02 80° 302° (WNW) 16:01:34 436.795 FM
Uosat F 20 Apr 15:52:48 15:57:29 40° 70° (ENE) 16:02:09 435.120 FM
TMSAT-1 20 Apr 16:14:28 16:19:32 46° 261° (W) 16:24:38 436.925 FM
JAS-1B 20 Apr 16:19:55 16:28:11 88° 255° (WSW) 16:35:03 435.800 - 435.900 CW/SSB
UOSAT-12 20 Apr 16:31:10 16:33:13 13° 107° (ESE) 16:35:17 437.025 FM, 437.400 FM
AO-7 20 Apr 16:38:23 16:46:38 79° 70° (ENE) 16:54:56 29.400 - 29.500 MHz
ISS 20 Apr 16:43:06 16:45:38 20° 335° (NNW) 16:48:10 145.800 FM
OPAL 20 Apr 16:49:56 16:54:44 38° 292° (WNW) 16:59:31 ?
